Lille, France

1:03 AM CEST on September 29, 2016 (GMT +0200)
Lesquin

Weather History for LFQQ - November, 2012

Change the Weather History Date:

Sunday, November 18, 2012

  Actual Average Record
Temperature  
Mean Temperature 44 °F -  
Max Temperature 50 °F 46 °F 58 °F (2015)
Min Temperature 37 °F 37 °F 24 °F (1998)
Degree Days  
Heating Degree Days 22    
Moisture  
Dew Point 43 °F    
Average Humidity 93    
Maximum Humidity 100    
Minimum Humidity 76    
Precipitation  
Precipitation 0.04 in - - ()
Sea Level Pressure  
Sea Level Pressure 29.93 in    
Wind  
Wind Speed 4 mph ()    
Max Wind Speed 9 mph    
Max Gust Speed -    
Visibility 3.4 miles    
Events Fog , Rain    
Averages and records for this station are not official NWS values.
T = Trace of Precipitation, MM = Missing Value Source: Averaged Metar Reports

Daily Weather History Graph

Daily Weather History Graph

Search for Another Location

Airport or City:

Trip Planner

Search our weather history database for the weather conditions in past years. The results will help you decide how hot, cold, wet, or windy it might be!

Date:

Astronomy

Nov. 18, 2012 Rise Set
Actual Time 8:07 AM CET 4:57 PM CET
Civil Twilight 7:31 AM CET 5:33 PM CET
Nautical Twilight 6:51 AM CET 6:14 PM CET
Astronomical Twilight 6:12 AM CET 6:52 PM CET
Moon 12:19 PM CET (11/18) 10:06 PM CET (11/18)
Length of Visible Light 10h 02m
Length of Day
8h 49m
Waxing Crescent, 27% of the Moon is Illuminated
Nov 18
Waxing Crescent
Nov 20
First Quarter
Nov 28
Full
Dec 6
Last Quarter
Dec 13
New

Hourly Weather History & Observations

Time (CET) Temp. Windchill Dew Point Humidity Pressure Visibility Wind Dir Wind Speed Gust Speed Precip Events Conditions
12:00 AM 48.2 °F - 48.2 °F 100% 29.83 in 0.7 mi SW 3.5 mph - N/A Rain Light Rain
12:30 AM 48.2 °F - 48.2 °F 100% 29.83 in 0.5 mi West 2.3 mph - N/A Fog , Rain Light Rain
1:00 AM 47 °F - 47 °F 100% 29.83 in 0 mi NW 4.6 mph - - Rain Light Rain
1:00 AM 48.2 °F - 48.2 °F 100% 29.83 in 0.3 mi WNW 3.5 mph - N/A Fog , Rain Light Rain
1:30 AM 48.2 °F - 48.2 °F 100% 29.80 in 1.2 mi NW 4.6 mph - N/A Rain Light Rain
2:00 AM 48.2 °F - 48.2 °F 100% 29.83 in 1.6 mi NNW 9.2 mph - N/A Rain Light Rain
2:30 AM 48.2 °F - 48.2 °F 100% 29.83 in 1.6 mi North 9.2 mph - N/A   Light Drizzle
3:00 AM 48.2 °F - 46.4 °F 93% 29.83 in 3.1 mi North 8.1 mph - N/A Rain Light Rain
3:30 AM 48.2 °F - 46.4 °F 93% 29.83 in 2.2 mi North 8.1 mph - N/A Rain Light Rain
4:00 AM 46.4 °F 42.9 °F 46.4 °F 100% 29.83 in 2.5 mi North 6.9 mph - N/A Rain Rain
4:30 AM 46.4 °F 42.4 °F 46.4 °F 100% 29.83 in 1.2 mi North 8.1 mph - N/A Rain Rain
5:00 AM 46.4 °F 42.9 °F 46.4 °F 100% 29.83 in 1.9 mi North 6.9 mph - N/A Rain Rain
5:30 AM 46.4 °F 44.3 °F 46.4 °F 100% 29.83 in 1.9 mi North 4.6 mph - N/A Rain Rain
6:00 AM 46.4 °F 43.5 °F 46.4 °F 100% 29.86 in 1.9 mi North 5.8 mph - N/A Rain Rain
6:30 AM 46.4 °F 44.3 °F 46.4 °F 100% 29.86 in 1.9 mi North 4.6 mph - N/A Rain Light Drizzle
7:00 AM 47 °F - 46 °F 95% 29.88 in 2 mi NNE 3.5 mph - - Rain Light Rain
7:00 AM 46.4 °F 45.2 °F 46.4 °F 100% 29.86 in 1.9 mi Variable 3.5 mph - N/A Rain Rain
7:01 AM 46.4 °F 44.3 °F 46.4 °F 100% 29.89 in 1.9 mi NNE 4.6 mph - N/A Rain Rain
7:30 AM 46.4 °F 44.3 °F 46.4 °F 100% 29.89 in 2.2 mi North 4.6 mph - N/A Rain Rain
8:00 AM 46.4 °F 44.3 °F 44.6 °F 93% 29.89 in 3.7 mi North 4.6 mph - N/A Rain Light Rain
8:30 AM 46.4 °F 44.3 °F 44.6 °F 93% 29.92 in 3.7 mi NNW 4.6 mph - N/A Rain Light Rain
9:00 AM 46.4 °F - 44.6 °F 93% 29.92 in 3.7 mi Variable 2.3 mph - N/A Rain Light Rain
9:30 AM 46.4 °F 45.2 °F 46.4 °F 100% 29.92 in 1.9 mi NNW 3.5 mph - N/A Rain Light Rain
10:00 AM 46.4 °F - 46.4 °F 100% 29.92 in 1.2 mi NNW 2.3 mph - N/A Rain Rain
10:30 AM 46.4 °F 45.2 °F 46.4 °F 100% 29.95 in 1.6 mi NW 3.5 mph - N/A Rain Rain
11:00 AM 46.4 °F 45.2 °F 46.4 °F 100% 29.95 in 2.5 mi NNW 3.5 mph - N/A   Overcast
11:30 AM 46.4 °F - 46.4 °F 100% 29.95 in 3.1 mi NNW 2.3 mph - N/A   Overcast
12:00 PM 46.4 °F 44.3 °F 46.4 °F 100% 29.95 in 4.3 mi North 4.6 mph - N/A   Mostly Cloudy
12:30 PM 48.2 °F - 44.6 °F 87% 29.95 in 6.2 mi North 4.6 mph - N/A   Mostly Cloudy
1:00 PM 48 °F - 44 °F 83% 29.97 in 9 mi North 6.9 mph - -   Partly Cloudy
1:00 PM 48.2 °F - 44.6 °F 87% 29.95 in 6.2 mi North 6.9 mph - N/A   Mostly Cloudy
1:30 PM 48.2 °F - 42.8 °F 82% 29.95 in 6.2 mi NNE 8.1 mph - N/A   Mostly Cloudy
2:00 PM 50.0 °F - 42.8 °F 76% 29.95 in 6.2 mi NNE 5.8 mph - N/A   Scattered Clouds
2:30 PM 48.2 °F - 41.0 °F 76% 29.95 in 6.2 mi North 6.9 mph - N/A   Partly Cloudy
3:00 PM 48.2 °F - 41.0 °F 76% 29.98 in 6.2 mi North 3.5 mph - N/A   Partly Cloudy
3:30 PM 48.2 °F - 41.0 °F 76% 29.98 in 6.2 mi NNE 4.6 mph - N/A   Partly Cloudy
4:00 PM 48.2 °F - 41.0 °F 76% 29.98 in 6.2 mi Variable 2.3 mph - N/A   Partly Cloudy
4:30 PM 48.2 °F - 41.0 °F 76% 29.98 in 6.2 mi Calm Calm - N/A   Partly Cloudy
5:00 PM 46.4 °F 45.2 °F 39.2 °F 76% 29.98 in 6.2 mi NNE 3.5 mph - N/A   Partly Cloudy
5:30 PM 44.6 °F 43.1 °F 39.2 °F 81% 30.01 in 6.2 mi North 3.5 mph - N/A   Partly Cloudy
6:00 PM 42.8 °F 41.1 °F 39.2 °F 87% 30.01 in 6.2 mi NNE 3.5 mph - N/A   Partly Cloudy
6:30 PM 41.0 °F - 39.2 °F 93% 30.01 in 4.3 mi Variable 2.3 mph - N/A   Partly Cloudy
7:00 PM 40 °F - 37 °F 87% 30.03 in 4 mi SE 1.2 mph - -   Scattered Clouds
7:00 PM 41.0 °F - 37.4 °F 87% 30.01 in 4.3 mi Calm Calm - N/A   Partly Cloudy
7:30 PM 39.2 °F - 37.4 °F 93% 30.01 in 3.7 mi Calm Calm - N/A   Partly Cloudy
8:00 PM 37.4 °F - 35.6 °F 93% 30.04 in 3.1 mi Calm Calm - N/A   Scattered Clouds
8:30 PM 37.4 °F - 37.4 °F 100% 30.04 in 3.1 mi Variable 1.2 mph - N/A   Unknown
9:00 PM 37.4 °F - 35.6 °F 93% 30.04 in 3.1 mi Variable 1.2 mph - N/A   Unknown
9:30 PM 37.4 °F 34.9 °F 37.4 °F 100% 30.04 in 3.1 mi Variable 3.5 mph - N/A   Unknown
10:00 PM 39.2 °F - 37.4 °F 93% 30.04 in 3.1 mi Variable 2.3 mph - N/A   Unknown
11:00 PM 37.4 °F - 35.6 °F 93% 30.01 in 1.9 mi Variable 2.3 mph - N/A   Mist